[Date Prev][Date Next][Thread Prev][Thread Next] - [Date Index][Thread Index][Author Index]
2 Line ISS Keps 9-27
- Subject: [sarex] 2 Line ISS Keps 9-27
- From: "Dave Larsen PhD" <doc@xxxxxxxxxxx>
- Date: Tue, 26 Sep 2006 20:16:27 -0700
ISS
1 25544U 98067A 06269.83060125 .00021766 00000-0 13904-3 0 7482
2 25544 051.6357 023.8594 0012279 029.0360 110.5130 15.76204776449194
----
Sent via sarex@amsat.org. Opinions expressed are those of the author.
Not an AMSAT member? Join now to support the amateur satellite program!
Subscription settings: http://amsat.org/mailman/listinfo/sarex
AMSAT Home